If you wish to contribute or participate in the discussions about articles you are invited to join SKYbrary as a registered user

 Actions

Attawapiskat Airport

From SKYbrary Wiki

CYAT
Airport
ICAO: CYAT – IATA: YAT
Summary
Name Attawapiskat Airport
Region North America
Territory Canada CA.gif
Location Attawapiskat, Ontario
Serving Attawapiskat First Nation
Elevation 9 m
29.528 ft
29.528 ft9 m
Coordinates 52° 55' 35.60" N, 82° 25' 49.71" W
Runways
Designator Length Width Surface ROPS
6/24 1067 m3,500.656 ft
30 m98.425 ft
GRVL /


METAR
Observation CYAT 061900Z AUTO 25009G16KT 9SM FEW075 SCT094 28/13 A2975 RMK SLP077 DENSITY ALT 1600FT
Station Attawapiskat Airport
Date/Time 06 August 2020 19:00:00
Wind direction 250°
Wind speed 09 kts
Lowest cloud amount few clouds
Temperature 28°C
Dew point 13°C
Humidity 39%
QNH hPa
Weather condition n/a

WX
Tag(s)

Attawapiskat Airport

ICAO: CYAT IATA: YSB

Description

Regional airport adjacent to the Attawapiskat First Nation, Ontario, Canada.

Climatology

Subarctic climate (Köppen climate classification Dfc) - long, usually very cold winters, and short, cool to mild summers.

Maps

Terrain

Loading map...

Airport Layout

Loading map...


Accidents & Serious Incidents at or in vicinity of CYAT

None on SKYbrary